Regional Weather Roundup
Issued by NWS

Home | Current Version | Previous Version | Text Only | Print | Product List | Glossary Off
Versions: 1 2 3 4 5 6 7 8 9 10 11 12 13 14 15 16 17 18 19 20 21 22 23 24 25 26 27 28 29 30 31 32 33 34 35 36 37 38 39 40 41 42 43 44 45 46 47 48 49 50

000
ASUS43 KLMK 022202
RWRKY
KENTUCKY REGIONAL WEATHER ROUNDUP
NATIONAL WEATHER SERVICE LOUISVILLE KY
600 PM EDT THU JUL 02 2015

NOTE "FAIR" INDICATES FEW OR NO CLOUDS BELOW 12,000 FEET
WITH NO SIGNIFICANT WEATHER AND/OR OBSTRUCTIONS TO VISIBILITY.

KYZ001>023-026-027-061>063-070>075-022300-
WESTERN AND SOUTH CENTRAL KENTUCKY

CITY           SKY/WX    TMP DP  RH WIND       PRES   REMARKS
PADUCAH        MOSUNNY   83  70  64 W8        29.82F
HENDERSON      SUNNY     82  68  61 CALM      29.81S
OWENSBORO      PTSUNNY   82  71  69 NE7       29.84S
HOPKINSVILLE   NOT AVBL
BOWLING GREEN  LGT RAIN  74  71  91 NE6       29.86S
GLASGOW        NOT AVBL
$$

KYZ024-025-028>034-038-045-046-053-022300-
NORTH CENTRAL KENTUCKY

CITY           SKY/WX    TMP DP  RH WIND       PRES   REMARKS
LOUISVILLE/SDF PTSUNNY   79  70  74 N8        29.84S
LOUISVILLE/LOU PTSUNNY   79  70  74 CALM      29.85S
FORT KNOX      NOT AVBL
$$

KYZ035>037-039>044-047>052-055>060-089>105-022300-
NORTHEAST KENTUCKY

CITY           SKY/WX    TMP DP  RH WIND       PRES   REMARKS
LEXINGTON      PTSUNNY   76  66  71 SW5       29.89R
COVINGTON      CLOUDY    75  67  76 E9        29.88R
FRANKFORT      CLOUDY    76  70  82 NE3       29.87R
$$

KYZ054-064>069-076>088-106>120-022300-
SOUTHEAST KENTUCKY

CITY           SKY/WX    TMP DP  RH WIND       PRES   REMARKS
JACKSON        LGT RAIN  74  67  78 VRB3      29.90S
LONDON         PTSUNNY   79  64  60 SW12      29.91R
SOMERSET       NOT AVBL
MIDDLESBORO    NOT AVBL
MONTICELLO     FOG       73  73 100 W9        29.93R VSB 1
$$



USA.gov is the U.S. government's official web portal to all federal, state and local government web resources and services.